Total_Precipitation_Accumulation
0.10 0.15 0.29 0.26 0.22 0.26 0.33 0.35 0.25 0.23 0.23 0.23 0.22 0.21 0.22 0.26 0.23 0.21 0.21 0.28 0.39 0.45 0.46 0.47 0.54 0.62 0.62 0.62 0.59 0.51 0.46 0.49 0.55 0.60 0.55 0.54 0.64 0.80 1.06 1.22 1.21 0.84 0.71
0.07 0.18 0.32 0.30 0.25 0.25 0.28 0.27 0.23 0.22 0.21 0.20 0.19 0.21 0.23 0.22 0.23 0.19 0.18 0.23 0.32 0.39 0.40 0.38 0.40 0.50 0.55 0.55 0.54 0.47 0.44 0.47 0.57 0.63 0.54 0.46 0.63 0.89 1.11 1.17 1.30 0.83 0.72
0.11 0.20 0.25 0.28 0.23 0.21 0.19 0.20 0.22 0.22 0.19 0.18 0.19 0.21 0.20 0.20 0.21 0.21 0.23 0.21 0.25 0.30 0.34 0.31 0.33 0.38 0.40 0.45 0.49 0.49 0.48 0.48 0.60 0.74 0.91 0.63 0.47 0.88 1.06 1.06 0.97 0.70 0.62
0.15 0.18 0.17 0.20 0.19 0.16 0.14 0.16 0.20 0.20 0.17 0.16 0.22 0.23 0.18 0.20 0.23 0.23 0.24 0.21 0.24 0.23 0.24 0.26 0.31 0.29 0.28 0.34 0.34 0.42 0.50 0.60 0.79 1.11 1.35 0.84 0.50 0.64 0.87 0.80 0.71 0.61 0.57
0.15 0.14 0.14 0.17 0.17 0.14 0.13 0.14 0.17 0.19 0.16 0.16 0.20 0.20 0.17 0.21 0.24 0.24 0.22 0.23 0.27 0.24 0.19 0.19 0.25 0.23 0.23 0.24 0.25 0.37 0.49 0.61 0.90 1.21 1.18 1.07 0.90 0.72 0.77 0.76 0.72 0.68 0.63
0.10 0.09 0.09 0.14 0.15 0.12 0.13 0.13 0.15 0.17 0.16 0.14 0.16 0.18 0.18 0.23 0.30 0.29 0.24 0.27 0.32 0.30 0.22 0.19 0.20 0.20 0.22 0.21 0.23 0.37 0.49 0.69 0.96 0.86 0.80 0.89 0.92 0.86 0.84 0.94 1.01 0.93 0.80
0.07 0.07 0.08 0.14 0.13 0.11 0.12 0.13 0.13 0.15 0.14 0.12 0.14 0.16 0.16 0.20 0.26 0.29 0.26 0.26 0.28 0.26 0.23 0.22 0.20 0.22 0.25 0.26 0.28 0.38 0.52 0.79 0.93 0.76 0.73 0.87 0.84 0.72 0.85 1.06 1.32 1.23 1.00
0.06 0.06 0.09 0.15 0.14 0.12 0.13 0.13 0.13 0.13 0.13 0.12 0.13 0.13 0.16 0.19 0.23 0.26 0.24 0.23 0.21 0.19 0.18 0.20 0.24 0.26 0.29 0.32 0.32 0.39 0.50 0.59 0.63 0.70 0.66 0.71 0.55 0.58 0.85 1.10 1.32 1.25 1.05
0.13 0.08 0.11 0.14 0.15 0.14 0.15 0.16 0.16 0.15 0.15 0.15 0.14 0.15 0.15 0.17 0.19 0.22 0.23 0.22 0.21 0.22 0.22 0.23 0.26 0.29 0.32 0.35 0.34 0.40 0.53 0.56 0.58 0.75 0.77 0.83 0.70 0.81 1.08 1.23 1.25 1.26 1.13
0.34 0.23 0.23 0.23 0.23 0.21 0.17 0.19 0.22 0.20 0.18 0.19 0.19 0.18 0.18 0.18 0.21 0.24 0.25 0.25 0.25 0.28 0.29 0.34 0.38 0.37 0.36 0.39 0.42 0.50 0.60 0.59 0.63 0.79 0.98 0.84 0.82 1.04 1.34 1.47 1.45 1.43 1.37
0.72 0.57 0.46 0.40 0.33 0.28 0.25 0.23 0.28 0.29 0.29 0.29 0.29 0.27 0.30 0.36 0.41 0.46 0.38 0.43 0.43 0.46 0.49 0.55 0.60 0.58 0.52 0.47 0.58 0.73 0.69 0.70 0.81 1.00 1.08 0.92 0.92 1.19 1.44 1.57 1.60 1.63 1.58
0.97 0.86 0.76 0.70 0.49 0.40 0.39 0.50 0.56 0.50 0.50 0.53 0.63 0.61 0.68 0.81 0.79 0.58 0.61 0.80 0.89 1.01 0.99 1.04 1.11 0.99 0.85 0.77 1.17 1.41 0.85 0.88 0.98 1.17 1.38 1.21 1.24 1.53 1.76 1.66 1.60 1.65 1.59
1.21 0.94 0.91 1.07 0.89 0.75 0.81 0.74 0.72 0.75 0.85 0.88 0.88 0.92 1.07 0.94 0.79 0.76 0.84 1.03 1.22 1.38 1.52 1.81 1.91 1.56 1.56 1.59 1.69 1.63 1.11 0.93 1.02 1.06 1.41 1.46 1.53 1.90 2.19 1.98 1.81 1.74 1.64
1.39 1.06 0.94 1.04 1.18 1.09 0.97 0.95 0.90 0.86 0.94 1.00 1.14 1.17 1.30 1.23 1.15 1.19 1.35 1.48 1.67 1.80 2.06 2.18 2.45 2.23 1.97 1.75 1.69 1.59 1.43 1.35 1.28 1.47 1.71 1.44 1.56 1.99 2.38 2.31 2.09 1.86 1.72
1.64 1.39 1.18 1.12 1.26 1.26 1.20 1.14 1.05 1.02 1.04 1.21 1.35 1.44 1.53 1.58 1.70 1.80 1.74 1.91 1.94 2.03 2.20 2.49 2.54 2.68 2.70 2.59 2.24 1.95 1.87 1.75 1.62 1.75 1.95 1.81 1.63 1.81 2.26 2.56 2.37 2.09 1.89
2.09 1.90 1.60 1.38 1.28 1.31 1.31 1.34 1.39 1.34 1.50 1.61 1.73 1.76 1.93 2.10 2.24 2.41 2.40 2.39 2.21 2.20 2.43 2.66 2.79 3.21 3.11 2.94 2.45 2.21 2.00 1.94 1.73 1.67 1.90 2.06 1.72 1.63 1.87 2.35 2.61 2.45 2.23
2.35 2.33 2.17 1.98 1.90 1.92 2.04 1.98 1.88 1.98 2.06 2.15 2.23 2.23 2.30 2.38 2.54 2.69 2.66 2.55 2.53 2.52 2.66 2.82 2.97 3.09 2.85 2.72 2.57 2.40 2.16 1.97 1.71 1.65 1.76 1.95 1.81 1.65 1.73 1.96 2.32 2.47 2.41
2.46 2.73 2.77 2.59 2.68 2.79 2.89 2.79 2.58 2.57 2.58 2.58 2.54 2.53 2.52 2.59 2.72 2.97 2.78 2.65 2.93 2.80 2.91 3.23 3.22 3.19 3.06 2.89 2.72 2.49 2.28 2.06 1.67 1.56 1.55 1.77 2.03 1.78 1.77 1.93 2.08 2.17 2.42
2.61 3.04 3.21 3.28 3.45 3.46 3.45 3.38 3.30 3.19 3.04 2.79 2.80 2.75 2.54 2.51 2.61 2.85 2.71 2.73 2.84 3.08 3.12 2.92 3.35 3.33 3.21 3.06 2.58 2.34 2.04 1.81 1.62 1.46 1.48 1.53 1.77 1.66 1.63 1.73 1.83 1.93 2.35
3.04 3.38 3.80 3.95 4.01 3.77 3.62 3.54 3.38 3.15 2.93 2.80 2.81 2.69 2.45 2.45 2.48 2.83 2.66 2.60 2.73 2.99 2.96 2.97 3.25 3.23 2.99 3.00 2.45 2.07 1.88 1.55 1.51 1.52 1.36 1.39 1.44 1.26 1.33 1.56 1.98 1.71 1.83
3.55 3.74 3.99 4.36 4.45 4.18 4.09 3.95 3.79 3.44 3.27 2.96 2.64 2.33 2.22 2.19 2.33 2.68 2.48 2.70 2.67 2.71 2.70 2.75 3.00 3.06 2.79 2.87 2.73 2.23 1.70 1.33 1.28 1.31 1.34 1.38 1.26 1.31 1.59 1.83 2.01 2.02 1.85
3.34 3.79 4.08 4.06 3.93 3.62 3.63 3.82 4.01 3.95 3.51 2.96 2.65 2.49 2.16 2.06 2.15 2.30 2.44 2.34 2.42 2.50 2.49 2.54 2.77 2.70 2.40 2.55 2.67 2.61 1.99 1.61 1.25 0.99 1.27 1.33 1.27 1.45 1.54 1.58 1.85 2.13 2.12
2.79 3.23 3.31 3.16 3.06 2.86 2.84 3.05 3.21 3.44 3.27 2.91 2.60 2.36 2.13 2.01 1.96 2.03 2.14 2.17 2.21 2.13 2.23 2.39 2.38 2.37 2.23 2.19 2.38 2.59 2.24 1.81 1.46 1.07 0.94 1.04 1.24 1.40 1.43 1.56 1.56 1.70 1.79
1.94 2.16 2.30 2.37 2.40 2.39 2.40 2.55 2.66 2.77 2.75 2.64 2.55 2.28 2.01 1.79 1.72 1.74 1.75 1.78 1.86 1.89 2.08 1.92 1.95 2.14 2.19 2.05 2.12 2.13 2.07 2.07 1.91 1.38 1.03 0.98 1.18 1.26 1.24 1.21 1.33 1.52 1.63
1.57 1.77 1.94 2.12 2.26 2.34 2.29 2.34 2.49 2.74 2.67 2.45 2.25 2.11 1.94 1.76 1.61 1.54 1.59 1.58 1.57 1.61 1.72 1.74 1.96 1.96 2.01 1.98 1.93 1.91 1.98 1.99 1.86 1.66 1.32 1.19 1.14 1.01 1.05 1.11 1.23 1.44 1.62
1.41 1.57 1.76 1.89 1.93 1.99 2.01 2.00 2.00 2.11 2.14 2.01 1.87 1.78 1.64 1.50 1.40 1.40 1.42 1.42 1.40 1.45 1.59 1.63 1.67 1.67 1.73 1.78 1.73 1.70 1.80 1.74 1.66 1.75 1.50 1.37 1.32 1.08 1.09 1.13 1.17 1.29 1.37